Wind_Speed
22 23 27 28 27 29 33 34 35 35 37 39 41 43 44 46 48 47 47 47 47 47 47 48 50 52 54 57 59 61 64 66 67 68 69 72 74 77 80 83 83 85 86 88 91 97 95
11 12 15 18 21 24 26 29 31 34 36 38 38 37 36 37 38 37 38 38 38 40 41 41 41 43 44 45 47 47 48 50 51 53 54 57 59 60 62 67 69 74 79 85 92 94 94
6 7 7 8 10 12 14 16 17 19 20 21 21 23 23 23 23 23 24 25 25 26 28 29 31 32 33 34 35 37 38 40 42 45 47 49 51 54 54 58 61 64 66 73 83 89 92
7 8 8 7 6 6 8 9 8 6 6 6 6 7 8 10 12 14 16 18 19 20 22 23 24 25 28 29 28 29 30 27 31 35 38 38 42 48 49 55 60 61 66 66 74 80 84
12 12 11 13 12 10 10 9 9 9 11 11 11 9 10 12 14 16 17 18 20 21 22 22 22 21 22 26 26 29 33 35 38 41 41 40 45 45 43 47 54 61 63 66 73 80 81
9 12 15 16 15 15 16 17 17 16 13 12 14 14 15 16 17 19 20 20 22 19 19 20 25 30 34 37 39 39 40 41 44 50 52 52 54 58 56 52 49 50 54 59 69 78 79
12 11 14 17 20 21 20 18 15 15 15 16 16 17 17 18 19 20 22 25 28 27 25 29 33 35 38 42 43 46 47 50 52 55 58 60 62 64 64 64 53 47 50 53 60 72 76
16 15 14 15 17 19 17 17 18 18 17 17 20 19 20 21 23 25 27 28 29 30 31 32 36 39 41 45 46 51 52 54 57 62 63 67 69 74 76 64 61 60 56 60 65 74 85
16 17 15 14 15 15 16 19 21 22 20 18 20 20 22 23 24 26 27 28 30 31 33 35 38 41 43 48 49 51 53 58 60 66 69 72 75 80 79 66 63 66 59 61 71 78 90
16 17 14 14 14 15 17 19 20 21 20 20 21 22 24 26 27 29 31 29 29 32 34 37 40 43 49 51 53 54 60 65 68 72 74 78 83 88 76 72 66 61 60 65 67 73 81
13 15 13 14 14 14 15 16 18 20 20 21 21 24 27 27 30 32 32 34 34 36 38 42 46 48 51 53 57 60 66 69 75 76 80 85 90 93 80 77 74 65 59 59 63 67 71
12 12 10 12 12 12 13 15 17 19 21 22 23 26 29 30 32 33 34 37 39 40 41 43 47 52 55 58 62 64 67 72 75 77 81 88 96 95 82 67 73 78 57 53 53 56 58
13 11 7 9 10 11 13 14 17 19 21 22 24 28 31 34 36 38 39 39 41 43 45 49 52 55 58 61 64 66 67 70 72 74 77 83 93 85 73 58 65 75 65 41 48 50 50
15 9 6 7 7 11 11 12 15 19 20 24 26 28 31 35 37 39 41 43 46 47 48 52 55 57 61 63 66 69 71 73 77 80 85 89 87 75 51 43 38 52 55 45 37 47 48
17 10 4 4 6 9 9 12 16 18 22 25 28 32 35 36 38 40 45 47 50 51 53 54 57 61 65 68 68 72 73 78 79 85 92 93 91 81 69 55 46 45 37 37 38 41 44
17 13 5 2 4 7 8 13 16 20 24 27 32 33 35 39 41 45 47 51 54 54 54 55 59 62 65 67 70 73 75 76 82 89 95 98 97 87 76 60 47 39 34 31 30 35 32
18 14 7 2 3 5 8 12 16 20 25 30 34 35 39 41 43 47 52 54 58 59 62 60 63 64 66 69 70 72 73 77 83 89 93 96 98 89 71 57 51 39 33 29 27 28 22
20 13 8 3 2 4 6 11 15 20 23 30 33 36 41 44 43 48 53 57 60 64 65 63 63 65 68 69 71 72 73 81 87 90 94 95 97 85 62 53 43 38 33 28 27 24 17
19 13 8 3 3 2 6 11 15 20 25 30 36 37 42 43 45 48 55 62 65 68 66 64 67 68 67 69 71 74 79 84 90 96 99 98 94 79 64 52 47 40 33 30 27 25 17
17 13 7 5 4 3 6 11 14 19 26 32 37 39 42 44 47 54 59 63 69 74 70 68 64 67 67 70 72 75 81 88 93 100 101 100 95 79 63 48 45 42 31 29 25 23 20
16 13 10 8 6 5 8 10 16 23 29 31 37 39 41 44 47 54 58 64 70 76 75 68 64 65 66 68 72 76 84 91 95 101 100 97 91 81 67 55 45 43 38 25 27 23 20
14 13 11 8 8 7 8 12 19 26 29 30 37 40 43 45 48 57 61 65 71 77 77 71 69 66 67 69 74 80 85 91 95 99 100 100 97 87 72 60 50 41 36 35 21 23 20
13 12 9 9 8 8 10 16 24 28 29 32 38 38 43 46 50 59 63 65 71 76 78 73 71 68 71 74 78 84 89 91 95 97 98 100 96 90 80 67 57 48 38 29 27 19 20
12 11 9 10 9 10 12 18 26 23 26 35 36 39 43 47 53 59 62 68 72 74 77 76 75 73 75 78 81 86 92 92 94 99 100 101 101 94 83 70 60 50 42 37 30 23 19
13 12 10 11 12 13 15 21 21 22 29 35 36 39 43 49 55 59 63 68 73 74 76 80 77 76 77 80 86 90 91 92 96 102 106 103 102 97 89 75 66 54 42 34 28 24 18
14 11 11 13 13 14 18 19 20 25 32 33 37 40 44 51 54 62 65 69 74 75 76 79 81 77 78 81 86 93 97 98 101 101 107 105 104 101 93 82 70 60 53 42 34 29 20
13 11 11 12 13 14 18 18 22 28 32 34 37 41 46 49 55 63 66 70 74 74 77 81 82 81 79 84 88 93 97 107 103 102 104 104 104 101 96 89 73 64 54 46 36 29 25
13 11 13 13 13 16 18 19 25 31 32 35 38 42 45 52 58 63 67 71 73 73 76 81 83 82 82 84 89 95 100 105 110 105 106 105 105 103 97 90 77 68 59 50 42 34 28
13 13 14 13 14 16 19 22 29 29 33 35 37 41 47 53 59 62 67 71 73 74 76 82 84 84 86 86 90 94 102 105 114 106 104 108 107 107 102 93 76 66 58 52 45 38 30
Wind_Direction
268 266 266 273 270 263 258 259 262 261 262 264 264 265 267 267 269 273 275 275 275 277 277 277 277 278 277 278 278 278 278 278 277 276 275 273 272 270 269 267 266 263 262 259 258 258 255
291 285 279 278 277 278 276 273 271 271 272 274 276 277 279 279 280 280 279 281 283 284 284 284 283 283 281 283 283 284 285 285 286 284 281 278 277 274 273 269 266 264 260 258 256 253 252
336 326 323 317 304 294 289 286 284 281 278 279 279 281 283 285 286 286 287 287 286 287 289 292 295 296 296 295 296 299 297 295 292 287 284 280 278 277 276 273 269 265 262 261 257 253 251
52 55 53 42 18 347 326 318 321 330 339 328 322 320 320 316 314 312 315 318 317 315 311 311 309 310 313 309 312 314 315 310 307 302 298 298 292 287 280 275 270 265 261 259 261 259 254
65 70 55 29 18 14 11 20 36 45 47 48 42 27 2 351 352 349 340 332 327 320 320 324 331 334 330 328 323 324 324 321 320 314 311 306 305 304 294 282 276 271 263 258 256 257 257
48 48 34 25 38 52 56 59 60 57 47 33 28 26 22 13 9 12 7 3 1 358 1 349 343 344 340 336 330 332 328 322 321 322 320 316 312 311 312 304 291 283 277 266 258 251 251
50 38 32 46 64 58 54 48 43 41 41 44 42 36 38 30 20 17 9 3 358 354 352 348 344 342 342 339 337 335 330 327 326 324 321 320 317 320 315 315 311 284 272 266 262 253 247
44 35 49 64 57 48 43 44 50 46 39 52 48 41 32 21 13 9 3 358 352 347 344 345 342 340 341 336 338 336 330 328 328 325 323 320 321 319 319 318 309 298 275 256 250 254 249
40 41 53 61 52 43 50 52 52 51 49 41 27 26 18 12 11 7 5 359 355 351 348 348 344 341 339 336 338 336 333 330 329 327 325 323 320 318 321 321 309 295 280 266 252 250 249
29 32 54 54 42 44 54 58 50 45 45 42 30 22 13 9 8 5 2 356 355 353 353 348 343 339 337 336 337 335 334 332 332 329 326 325 321 321 329 323 303 287 279 272 261 250 247
22 27 45 45 53 63 54 51 39 37 34 30 25 20 11 8 5 2 358 354 352 349 348 347 342 337 337 334 336 337 335 333 332 331 328 324 325 327 331 321 302 293 287 277 268 260 251
17 24 42 42 51 50 45 37 31 31 28 22 19 13 11 9 6 358 355 353 351 348 346 345 345 340 337 337 336 336 335 333 333 330 329 326 324 327 330 322 305 299 295 288 277 269 260
10 19 37 37 40 44 40 39 34 27 20 18 14 11 8 4 0 357 355 353 353 350 347 345 342 338 337 337 337 337 337 335 331 329 327 325 324 332 328 321 309 298 297 292 284 279 264
5 358 22 33 34 32 33 26 22 23 25 17 10 9 4 1 359 0 357 356 355 350 347 345 341 338 339 340 339 341 340 337 334 332 331 334 334 337 326 315 303 294 294 294 277 273 269
348 353 358 25 20 17 21 20 14 20 15 14 11 6 3 359 358 359 0 357 354 351 346 345 342 341 343 342 342 342 342 338 338 335 336 341 340 348 339 333 325 314 307 291 281 272 269
333 347 339 0 17 20 10 12 19 20 17 13 6 3 1 358 358 358 357 356 355 354 350 345 343 344 342 344 346 344 342 340 340 339 341 341 347 348 341 335 330 323 316 304 290 281 281
333 340 321 273 325 9 6 358 15 15 12 7 3 2 360 357 357 360 358 356 355 356 353 348 344 345 346 348 348 346 343 343 344 343 343 346 350 347 342 336 332 331 322 311 299 290 283
331 328 319 280 288 351 356 3 5 6 6 4 2 359 359 358 358 359 358 358 359 358 354 349 347 349 351 350 349 347 347 345 346 345 349 351 351 347 345 338 335 332 327 319 305 294 282
323 314 312 241 272 333 358 0 5 1 2 360 0 356 356 356 358 359 360 0 1 0 356 354 353 352 354 351 351 351 349 350 349 350 352 354 352 351 350 348 339 339 335 326 316 302 283
311 307 290 235 254 295 337 346 348 348 351 357 357 355 354 356 356 358 359 360 2 3 1 359 358 354 355 352 354 355 353 355 353 354 355 353 352 355 355 357 346 337 341 327 318 306 292
297 304 284 233 245 288 326 338 346 349 345 351 353 352 354 353 355 357 358 359 1 5 4 1 358 355 357 356 357 357 358 359 359 358 357 353 355 359 358 358 357 345 341 338 321 312 297
288 296 280 237 248 282 317 333 338 341 342 346 349 350 351 353 354 355 357 359 3 6 7 2 1 358 1 1 0 360 2 2 2 360 357 357 358 1 1 1 0 356 343 339 333 314 299
286 285 269 234 249 274 299 324 330 333 340 345 348 349 350 350 351 354 358 -0 4 7 8 4 0 1 4 4 4 0 2 3 3 360 359 1 1 3 2 3 1 356 352 342 336 320 301
282 275 261 234 243 268 298 318 325 339 342 343 347 347 349 349 354 356 359 0 3 5 8 5 4 4 5 5 5 3 3 4 3 2 1 2 5 4 2 3 3 358 355 347 340 330 308
268 272 254 233 245 271 302 318 334 335 339 341 345 345 348 351 354 356 358 1 3 4 6 6 4 5 6 7 8 6 4 5 4 4 4 3 4 6 4 2 1 -0 359 351 342 333 318
267 264 245 231 254 281 307 319 328 332 337 342 344 346 346 350 355 357 359 1 3 3 4 5 4 3 4 5 5 6 7 6 6 6 6 5 5 6 6 3 1 -0 358 356 348 343 333
270 257 234 236 262 293 308 323 325 329 337 338 343 346 348 350 354 357 359 0 1 2 3 3 2 2 2 4 5 5 6 7 7 6 7 7 7 8 7 5 2 0 359 355 352 344 336
256 241 227 248 275 292 313 317 320 326 333 336 341 346 347 349 352 355 358 359 359 0 1 2 2 1 1 3 3 5 7 7 7 5 6 8 9 8 8 8 4 2 359 358 354 351 341
240 230 237 265 282 303 309 314 318 326 330 336 342 343 344 348 352 355 356 358 358 359 359 -0 1 0 -0 0 1 3 5 7 7 6 6 8 10 9 8 7 7 4 3 360 357 355 349
Height
10663 10664 10664 10663 10662 10662 10662 10663 10664 10664 10664 10664 10664 10663 10662 10661 10660 10657 10654 10652 10649 10647 10645 10642 10639 10636 10631 10627 10623 10619 10614 10610 10607 10603 10600 10596 10594 10590 10588 10585 10587 10589 10588 10589 10588 10584 10594
10659 10659 10659 10659 10658 10656 10656 10656 10657 10657 10656 10656 10656 10655 10653 10652 10651 10649 10646 10644 10641 10638 10635 10632 10628 10624 10620 10615 10611 10607 10602 10597 10592 10587 10584 10579 10575 10572 10567 10562 10564 10559 10560 10557 10555 10562 10567
10657 10657 10657 10656 10654 10652 10651 10651 10651 10651 10650 10650 10649 10648 10648 10646 10645 10643 10640 10638 10635 10631 10628 10624 10619 10615 10611 10606 10600 10596 10591 10586 10581 10574 10568 10564 10560 10556 10554 10544 10539 10535 10535 10532 10526 10528 10538
10658 10657 10657 10655 10653 10651 10650 10649 10649 10648 10647 10646 10646 10645 10644 10642 10640 10638 10635 10632 10628 10625 10621 10617 10612 10607 10604 10599 10596 10588 10582 10578 10571 10562 10555 10552 10545 10539 10535 10526 10516 10514 10514 10514 10500 10498 10507
10660 10659 10658 10656 10653 10652 10650 10649 10648 10647 10646 10645 10644 10643 10642 10640 10638 10635 10632 10628 10625 10621 10617 10613 10608 10604 10599 10594 10588 10582 10574 10566 10558 10550 10543 10537 10527 10520 10515 10507 10499 10493 10493 10490 10480 10473 10481
10661 10660 10659 10656 10654 10652 10651 10650 10649 10648 10647 10646 10644 10642 10641 10638 10636 10633 10629 10626 10622 10618 10614 10610 10604 10598 10592 10586 10578 10572 10564 10556 10547 10536 10527 10518 10509 10498 10492 10485 10478 10472 10466 10464 10453 10453 10452
10663 10662 10660 10658 10656 10655 10653 10652 10650 10649 10648 10646 10644 10643 10641 10639 10636 10633 10628 10623 10619 10614 10610 10604 10599 10593 10586 10578 10570 10560 10550 10539 10531 10522 10509 10499 10486 10477 10468 10457 10451 10444 10438 10434 10427 10425 10427
10665 10663 10661 10660 10659 10657 10655 10653 10652 10650 10648 10647 10646 10643 10641 10638 10635 10631 10626 10621 10616 10610 10604 10600 10592 10586 10580 10571 10562 10551 10538 10529 10519 10504 10494 10477 10466 10452 10441 10436 10422 10408 10405 10405 10404 10393 10389
10666 10665 10663 10662 10661 10659 10657 10656 10654 10652 10650 10649 10647 10644 10641 10638 10634 10629 10625 10619 10613 10606 10598 10592 10586 10577 10569 10559 10553 10543 10530 10516 10506 10489 10474 10462 10448 10432 10418 10408 10397 10376 10373 10368 10371 10363 10352
10668 10666 10665 10664 10663 10661 10659 10658 10656 10654 10653 10651 10648 10644 10640 10636 10632 10627 10622 10616 10610 10602 10595 10586 10579 10570 10559 10552 10542 10534 10520 10504 10491 10476 10457 10440 10422 10404 10396 10375 10356 10349 10341 10334 10331 10331 10327
10669 10668 10667 10665 10663 10662 10661 10659 10657 10655 10652 10650 10647 10643 10639 10634 10629 10623 10617 10611 10604 10596 10588 10579 10569 10560 10551 10542 10532 10521 10504 10491 10472 10455 10436 10415 10396 10378 10370 10348 10320 10314 10311 10305 10299 10298 10295
10669 10668 10667 10666 10665 10663 10662 10660 10658 10655 10653 10649 10646 10642 10637 10632 10626 10620 10613 10605 10598 10589 10580 10572 10562 10549 10540 10531 10518 10508 10494 10475 10460 10441 10421 10398 10373 10351 10336 10329 10288 10267 10286 10279 10273 10270 10273
10669 10667 10667 10667 10666 10664 10662 10660 10658 10655 10652 10649 10645 10640 10635 10629 10622 10615 10607 10599 10591 10581 10573 10562 10552 10542 10531 10520 10507 10497 10483 10469 10452 10437 10420 10398 10363 10341 10321 10299 10264 10240 10246 10256 10248 10246 10247
10669 10667 10666 10666 10665 10664 10662 10660 10658 10655 10652 10648 10643 10638 10632 10625 10618 10610 10602 10593 10584 10575 10565 10554 10543 10533 10520 10510 10495 10482 10465 10449 10432 10413 10395 10374 10348 10321 10295 10280 10264 10239 10231 10230 10229 10223 10224
10668 10666 10666 10665 10664 10663 10661 10659 10657 10653 10650 10646 10640 10634 10628 10622 10615 10607 10598 10589 10578 10566 10554 10544 10533 10521 10509 10494 10480 10465 10450 10430 10415 10395 10369 10346 10323 10296 10269 10254 10242 10227 10222 10215 10210 10208 10208
10666 10665 10664 10664 10663 10661 10660 10657 10655 10651 10647 10643 10638 10632 10626 10619 10611 10602 10594 10584 10573 10562 10550 10538 10526 10514 10499 10486 10470 10452 10437 10420 10400 10376 10349 10320 10295 10275 10250 10236 10227 10216 10208 10202 10198 10194 10200
10664 10663 10661 10661 10660 10659 10658 10655 10653 10649 10645 10640 10635 10629 10622 10615 10608 10599 10590 10580 10568 10555 10541 10529 10515 10504 10489 10474 10460 10445 10427 10410 10389 10364 10340 10311 10282 10259 10243 10224 10210 10203 10195 10190 10186 10185 10189
10661 10660 10658 10658 10658 10657 10655 10654 10650 10647 10644 10639 10633 10627 10620 10613 10605 10596 10586 10575 10563 10549 10535 10521 10508 10495 10481 10466 10452 10438 10421 10399 10378 10357 10332 10305 10276 10256 10240 10218 10207 10194 10185 10180 10176 10175 10178
10657 10656 10655 10655 10656 10655 10653 10651 10648 10645 10642 10637 10631 10624 10617 10610 10602 10593 10582 10569 10557 10544 10528 10514 10499 10484 10473 10460 10445 10426 10407 10387 10363 10339 10315 10291 10277 10253 10226 10211 10195 10187 10178 10171 10168 10166 10168
10654 10653 10652 10652 10653 10652 10651 10648 10645 10642 10638 10633 10627 10620 10613 10605 10596 10586 10575 10564 10551 10537 10522 10507 10494 10480 10466 10450 10436 10419 10396 10375 10352 10326 10303 10283 10264 10242 10223 10211 10194 10181 10174 10164 10160 10158 10158
10649 10649 10648 10649 10650 10649 10648 10645 10642 10639 10634 10630 10624 10618 10612 10604 10596 10586 10575 10562 10549 10534 10516 10504 10492 10477 10464 10448 10431 10415 10396 10369 10346 10323 10304 10286 10263 10236 10216 10202 10191 10176 10166 10162 10154 10152 10151
10645 10645 10644 10645 10646 10645 10644 10642 10638 10635 10631 10626 10620 10614 10606 10599 10592 10582 10570 10557 10543 10528 10515 10499 10486 10473 10460 10446 10429 10412 10394 10373 10350 10326 10307 10280 10249 10228 10210 10196 10185 10176 10165 10154 10153 10147 10144
10640 10640 10640 10641 10642 10641 10640 10638 10635 10631 10627 10622 10617 10610 10603 10596 10588 10577 10566 10554 10541 10527 10512 10498 10485 10469 10454 10440 10425 10408 10391 10369 10351 10333 10309 10279 10251 10227 10206 10192 10179 10169 10161 10154 10146 10143 10138
10635 10635 10635 10637 10637 10637 10636 10634 10631 10628 10624 10619 10614 10607 10600 10593 10584 10574 10561 10548 10535 10524 10511 10498 10483 10468 10452 10436 10424 10406 10385 10368 10351 10327 10301 10275 10248 10225 10205 10193 10181 10169 10157 10147 10141 10137 10134
10630 10630 10631 10632 10633 10633 10632 10631 10627 10624 10620 10615 10609 10603 10596 10588 10580 10570 10558 10545 10532 10519 10506 10494 10479 10465 10451 10437 10421 10404 10387 10370 10345 10320 10292 10270 10248 10228 10207 10189 10177 10165 10157 10148 10140 10133 10129
10625 10625 10626 10627 10628 10629 10628 10626 10623 10620 10616 10610 10605 10599 10592 10584 10574 10564 10553 10542 10530 10518 10504 10493 10478 10463 10447 10433 10417 10402 10384 10365 10343 10321 10295 10271 10252 10227 10206 10185 10174 10159 10148 10141 10134 10127 10124
10620 10621 10622 10623 10624 10625 10623 10621 10618 10615 10611 10606 10600 10593 10586 10579 10570 10560 10549 10537 10526 10514 10501 10486 10472 10456 10443 10427 10414 10399 10380 10360 10339 10321 10303 10281 10257 10236 10213 10191 10175 10160 10149 10139 10133 10126 10120
10615 10615 10617 10619 10620 10619 10618 10616 10613 10610 10605 10600 10595 10588 10581 10573 10564 10554 10544 10533 10521 10509 10498 10484 10471 10456 10439 10424 10410 10394 10376 10356 10334 10316 10300 10280 10258 10236 10217 10201 10176 10162 10148 10138 10130 10122 10116
10609 10611 10613 10614 10615 10614 10612 10610 10607 10603 10599 10595 10589 10583 10577 10568 10559 10549 10537 10527 10516 10505 10492 10479 10465 10449 10433 10419 10405 10390 10370 10353 10337 10318 10298 10277 10260 10236 10215 10203 10186 10170 10154 10140 10129 10121 10114